^^
Datos históricos de la estación: Murcia-Puente Tocinos
Diario Informe para Marzo 8, 2019 Unidades:  Métrico    Inglés   Ambas
Diario Semanal Mensual Anual Configurable
  Máximo: Mínimo: Media:
Temperatura: 20.2 °C 10.0 °C 14.1 °C
Punto de rocio: 6.2 °C -1.4 °C 2.9 °C
Humedad: 67% 35% 48%
Velocidad viento: 13.7km/h 0.0km/h 7.2km/h
Racha viento: 31.5km/h - -
Viento- - South
Presión: 1026.1 hPa 1016.7 hPa -
Precipitación: 0.0 mm    
Historical Graphs
 
 
Tabla de datos para Marzo 8, 2019
Hora Temperatura Punto de rocio Presión Viento Velocidad viento Racha viento Humedad Intensidad lluvia(por hora) Nubes
00:00 12.9 °C 4.6 °C 1016.7 hPa SSW 8.0 km/h 11.3 km/h 57% 0.0 mm CLR
00:05 12.8 °C 4.5 °C 1016.7 hPa SSE 6.9 km/h 9.3 km/h 57% 0.0 mm CLR
00:10 12.7 °C 4.7 °C 1016.7 hPa SSW 6.4 km/h 8.4 km/h 58% 0.0 mm CLR
00:15 12.7 °C 4.7 °C 1016.7 hPa South 6.4 km/h 11.1 km/h 58% 0.0 mm CLR
00:20 12.5 °C 4.4 °C 1016.7 hPa SSW 6.9 km/h 11.9 km/h 58% 0.0 mm CLR
00:25 12.4 °C 4.3 °C 1016.7 hPa South 6.9 km/h 11.1 km/h 58% 0.0 mm CLR
00:30 12.3 °C 4.5 °C 1016.7 hPa South 8.4 km/h 9.3 km/h 59% 0.0 mm CLR
00:35 12.2 °C 4.4 °C 1016.7 hPa SSW 8.4 km/h 7.4 km/h 59% 0.0 mm CLR
00:40 12.2 °C 4.4 °C 1016.7 hPa SSW 6.4 km/h 9.3 km/h 59% 0.0 mm CLR
00:45 12.2 °C 4.4 °C 1016.7 hPa South 6.4 km/h 7.6 km/h 59% 0.0 mm CLR
00:50 12.1 °C 4.3 °C 1016.7 hPa SSW 5.8 km/h 9.3 km/h 59% 0.0 mm CLR
00:55 12.1 °C 4.3 °C 1016.7 hPa SSW 5.8 km/h 9.3 km/h 59% 0.0 mm CLR
01:00 12.1 °C 4.6 °C 1016.7 hPa SSW 4.8 km/h 8.0 km/h 60% 0.0 mm CLR
01:05 12.1 °C 4.6 °C 1016.7 hPa SW 5.8 km/h 7.4 km/h 60% 0.0 mm CLR
01:10 12.1 °C 4.3 °C 1016.7 hPa SW 5.0 km/h 7.4 km/h 59% 0.0 mm CLR
01:15 12.2 °C 4.2 °C 1016.7 hPa SW 5.0 km/h 8.7 km/h 58% 0.0 mm CLR
01:20 12.2 °C 3.9 °C 1016.7 hPa SW 5.8 km/h 7.4 km/h 57% 0.0 mm CLR
01:25 12.2 °C 3.4 °C 1016.7 hPa SW 5.8 km/h 9.3 km/h 55% 0.0 mm CLR
01:30 12.3 °C 3.0 °C 1016.7 hPa SW 6.4 km/h 9.3 km/h 53% 0.0 mm CLR
01:35 12.3 °C 2.7 °C 1016.8 hPa SW 6.4 km/h 9.3 km/h 52% 0.0 mm CLR
01:40 12.4 °C 3.1 °C 1016.8 hPa SSW 5.8 km/h 8.7 km/h 53% 0.0 mm CLR
01:45 12.3 °C 2.7 °C 1016.8 hPa SSW 5.8 km/h 8.7 km/h 52% 0.0 mm CLR
01:50 12.2 °C 2.3 °C 1016.7 hPa SW 6.4 km/h 11.1 km/h 51% 0.0 mm CLR
01:55 12.2 °C 1.8 °C 1016.7 hPa West 6.4 km/h 9.3 km/h 49% 0.0 mm CLR
02:00 12.1 °C 1.4 °C 1016.7 hPa SW 8.0 km/h 11.3 km/h 48% 0.0 mm CLR
02:05 12.1 °C 1.1 °C 1016.9 hPa SW 6.9 km/h 11.9 km/h 47% 0.0 mm CLR
02:10 12.1 °C 1.1 °C 1016.9 hPa West 6.4 km/h 11.1 km/h 47% 0.0 mm CLR
02:15 12.0 °C 0.7 °C 1016.9 hPa SW 6.4 km/h 11.1 km/h 46% 0.0 mm CLR
02:20 11.9 °C 0.6 °C 1016.8 hPa WSW 7.6 km/h 11.1 km/h 46% 0.0 mm CLR
02:25 11.9 °C 0.3 °C 1016.8 hPa WSW 7.6 km/h 9.3 km/h 45% 0.0 mm CLR
02:30 11.9 °C 0.3 °C 1016.8 hPa WSW 5.8 km/h 7.4 km/h 45% 0.0 mm CLR
02:35 11.8 °C 0.2 °C 1017.0 hPa WSW 5.8 km/h 7.4 km/h 45% 0.0 mm CLR
02:40 11.7 °C 0.4 °C 1017.0 hPa WSW 5.0 km/h 7.4 km/h 46% 0.0 mm CLR
02:45 11.7 °C 0.2 °C 1017.0 hPa SW 5.0 km/h 7.6 km/h 45% 0.0 mm CLR
02:50 11.7 °C 0.4 °C 1017.0 hPa SW 5.0 km/h 7.4 km/h 46% 0.0 mm CLR
02:55 11.6 °C 0.3 °C 1017.0 hPa SW 5.0 km/h 4.7 km/h 46% 0.0 mm CLR
03:00 11.5 °C 0.3 °C 1017.0 hPa SW 3.2 km/h 9.7 km/h 46% 0.0 mm CLR
03:05 11.4 °C 0.2 °C 1017.1 hPa SW 4.7 km/h 9.3 km/h 46% 0.0 mm CLR
03:10 11.4 °C 0.2 °C 1017.1 hPa SW 5.8 km/h 9.3 km/h 46% 0.0 mm CLR
03:15 11.3 °C 0.1 °C 1017.1 hPa SSW 5.8 km/h 9.3 km/h 46% 0.0 mm CLR
03:20 11.2 °C 0.0 °C 1017.2 hPa SSW 5.0 km/h 9.3 km/h 46% 0.0 mm CLR
03:25 11.2 °C 0.3 °C 1017.2 hPa SW 5.0 km/h 14.8 km/h 47% 0.0 mm CLR
03:30 11.0 °C 0.1 °C 1017.2 hPa SSW 6.9 km/h 9.3 km/h 47% 0.0 mm CLR
03:35 10.9 °C 0.0 °C 1017.2 hPa SW 6.9 km/h 11.9 km/h 47% 0.0 mm CLR
03:40 10.9 °C 0.0 °C 1017.2 hPa SW 8.4 km/h 11.1 km/h 47% 0.0 mm CLR
03:45 10.9 °C 0.0 °C 1017.2 hPa WSW 8.4 km/h 9.3 km/h 47% 0.0 mm CLR
03:50 10.9 °C 0.0 °C 1017.2 hPa WSW 6.4 km/h 7.4 km/h 47% 0.0 mm CLR
03:55 10.9 °C 0.0 °C 1017.2 hPa SSW 6.4 km/h 11.1 km/h 47% 0.0 mm CLR
04:00 10.9 °C 0.0 °C 1017.2 hPa SSW 8.0 km/h 12.9 km/h 47% 0.0 mm CLR
04:05 10.9 °C 0.0 °C 1017.0 hPa South 6.9 km/h 9.5 km/h 47% 0.0 mm CLR
04:10 10.9 °C 0.0 °C 1017.0 hPa SW 6.9 km/h 11.1 km/h 47% 0.0 mm CLR
04:15 10.9 °C 0.0 °C 1017.0 hPa SW 6.9 km/h 11.1 km/h 47% 0.0 mm CLR
04:20 10.9 °C 0.0 °C 1016.9 hPa SSW 6.9 km/h 11.1 km/h 47% 0.0 mm CLR
04:25 10.9 °C 0.0 °C 1016.9 hPa South 6.9 km/h 9.3 km/h 47% 0.0 mm CLR
04:30 10.9 °C 0.0 °C 1016.9 hPa West 6.9 km/h 7.6 km/h 47% 0.0 mm CLR
04:35 10.9 °C 0.0 °C 1016.9 hPa WSW 6.9 km/h 5.8 km/h 47% 0.0 mm CLR
04:40 10.9 °C 0.0 °C 1016.9 hPa SSW 5.0 km/h 11.1 km/h 47% 0.0 mm CLR
04:45 10.9 °C 0.0 °C 1016.9 hPa WNW 5.0 km/h 7.4 km/h 47% 0.0 mm CLR
04:50 10.7 °C 0.1 °C 1017.0 hPa West 5.8 km/h 7.6 km/h 48% 0.0 mm CLR
04:55 10.4 °C 0.1 °C 1017.0 hPa SW 5.8 km/h 11.1 km/h 49% 0.0 mm CLR
05:00 10.2 °C -0.1 °C 1017.0 hPa WSW 8.0 km/h 11.3 km/h 49% 0.0 mm CLR
05:05 10.3 °C 0.1 °C 1017.2 hPa SW 6.4 km/h 7.4 km/h 49% 0.0 mm CLR
05:10 10.4 °C 0.1 °C 1017.2 hPa West 5.0 km/h 7.4 km/h 49% 0.0 mm CLR
05:15 10.3 °C 0.1 °C 1017.2 hPa WSW 5.0 km/h 9.3 km/h 49% 0.0 mm CLR
05:20 10.3 °C 0.1 °C 1017.3 hPa WSW 5.8 km/h 7.6 km/h 49% 0.0 mm CLR
05:25 10.2 °C -0.1 °C 1017.3 hPa SSW 5.8 km/h 11.1 km/h 49% 0.0 mm CLR
05:30 10.3 °C 0.1 °C 1017.3 hPa WSW 6.4 km/h 7.4 km/h 49% 0.0 mm CLR
05:35 10.3 °C -0.2 °C 1017.3 hPa WSW 6.4 km/h 7.4 km/h 48% 0.0 mm CLR
05:40 10.5 °C -0.3 °C 1017.3 hPa SSW 5.8 km/h 9.3 km/h 47% 0.0 mm CLR
05:45 10.6 °C 0.1 °C 1017.3 hPa SSW 5.8 km/h 9.3 km/h 48% 0.0 mm CLR
05:50 10.5 °C -0.1 °C 1017.5 hPa SSW 6.4 km/h 7.6 km/h 48% 0.0 mm CLR
05:55 10.3 °C -0.2 °C 1017.5 hPa SW 6.4 km/h 7.4 km/h 48% 0.0 mm CLR
06:00 10.2 °C 0.0 °C 1017.5 hPa SW 4.8 km/h 9.7 km/h 49% 0.0 mm CLR
06:05 10.2 °C -0.1 °C 1017.6 hPa South 5.8 km/h 9.3 km/h 49% 0.0 mm CLR
06:10 10.2 °C -0.1 °C 1017.6 hPa SSW 6.4 km/h 9.3 km/h 49% 0.0 mm CLR
06:15 10.2 °C -0.1 °C 1017.6 hPa SSW 6.4 km/h 11.1 km/h 49% 0.0 mm CLR
06:20 10.1 °C -0.2 °C 1017.7 hPa South 7.6 km/h 9.3 km/h 49% 0.0 mm CLR
06:25 10.0 °C -0.2 °C 1017.7 hPa SSW 7.6 km/h 9.3 km/h 49% 0.0 mm CLR
06:30 10.0 °C -0.2 °C 1017.7 hPa SSW 6.9 km/h 11.1 km/h 49% 0.0 mm CLR
06:35 10.1 °C -0.4 °C 1017.9 hPa SW 6.9 km/h 10.0 km/h 48% 0.0 mm CLR
06:40 10.1 °C -0.4 °C 1017.9 hPa SW 7.6 km/h 11.1 km/h 48% 0.0 mm CLR
06:45 10.2 °C -0.3 °C 1017.9 hPa WSW 7.6 km/h 9.3 km/h 48% 0.0 mm CLR
06:50 10.2 °C -0.3 °C 1018.1 hPa West 6.4 km/h 7.4 km/h 48% 0.0 mm CLR
06:55 10.2 °C -0.3 °C 1018.1 hPa WSW 6.4 km/h 9.5 km/h 48% 0.0 mm CLR
07:00 10.1 °C -0.4 °C 1018.1 hPa WSW 4.8 km/h 11.3 km/h 48% 0.0 mm CLR
07:05 10.1 °C -0.7 °C 1018.1 hPa SW 5.8 km/h 11.1 km/h 47% 0.0 mm CLR
07:10 10.1 °C -0.7 °C 1018.1 hPa SW 7.6 km/h 9.3 km/h 47% 0.0 mm CLR
07:15 10.1 °C -1.0 °C 1018.1 hPa WSW 7.6 km/h 11.1 km/h 46% 0.0 mm CLR
07:20 10.1 °C -1.3 °C 1018.2 hPa SW 6.9 km/h 13.0 km/h 45% 0.0 mm CLR
07:25 10.2 °C -1.2 °C 1018.2 hPa SSW 6.9 km/h 13.0 km/h 45% 0.0 mm CLR
07:30 10.2 °C -1.2 °C 1018.2 hPa SW 8.4 km/h 13.0 km/h 45% 0.0 mm CLR
07:35 10.3 °C -1.4 °C 1018.3 hPa SW 8.4 km/h 11.1 km/h 44% 0.0 mm CLR
07:40 10.3 °C -1.4 °C 1018.3 hPa WSW 7.6 km/h 11.1 km/h 44% 0.0 mm CLR
07:45 10.3 °C -1.1 °C 1018.3 hPa WSW 7.6 km/h 9.3 km/h 45% 0.0 mm CLR
07:50 10.2 °C -0.9 °C 1018.4 hPa West 6.9 km/h 7.4 km/h 46% 0.0 mm CLR
07:55 10.1 °C -0.7 °C 1018.4 hPa WSW 6.9 km/h 7.4 km/h 47% 0.0 mm CLR
08:00 10.0 °C -0.8 °C 1018.4 hPa WSW 3.2 km/h 6.4 km/h 47% 0.0 mm CLR
08:05 10.1 °C -0.7 °C 1018.7 hPa WSW 3.9 km/h 3.7 km/h 47% 0.0 mm CLR
08:10 10.2 °C -0.3 °C 1018.7 hPa East 2.3 km/h 7.4 km/h 48% 0.0 mm CLR
08:15 10.2 °C -0.3 °C 1018.7 hPa ESE 2.3 km/h 7.4 km/h 48% 0.0 mm CLR
08:20 10.2 °C -0.3 °C 1018.9 hPa ESE 3.2 km/h 1.9 km/h 48% 0.0 mm CLR
08:25 10.3 °C -0.2 °C 1018.9 hPa ESE 3.2 km/h 5.6 km/h 48% 0.0 mm CLR
08:30 10.4 °C -0.2 °C 1018.9 hPa WNW 2.3 km/h 5.6 km/h 48% 0.0 mm CLR
08:35 10.4 °C -0.4 °C 1019.0 hPa WNW 2.3 km/h 3.7 km/h 47% 0.0 mm CLR
08:40 10.4 °C -0.2 °C 1019.0 hPa WNW 3.9 km/h 3.7 km/h 48% 0.0 mm CLR
08:45 10.6 °C -0.3 °C 1019.0 hPa WNW 3.9 km/h 3.7 km/h 47% 0.0 mm CLR
08:50 10.7 °C -0.8 °C 1019.2 hPa SW 2.3 km/h 10.0 km/h 45% 0.0 mm CLR
08:55 11.1 °C -1.0 °C 1019.2 hPa SSW 2.3 km/h 9.3 km/h 43% 0.0 mm CLR
09:00 11.3 °C -0.9 °C 1019.2 hPa SW 8.0 km/h 9.7 km/h 43% 0.0 mm CLR
09:05 11.5 °C -1.0 °C 1019.7 hPa SW 6.4 km/h 9.3 km/h 42% 0.0 mm CLR
09:10 11.7 °C -0.5 °C 1019.7 hPa SSE 5.0 km/h 5.6 km/h 43% 0.0 mm CLR
09:15 11.9 °C -0.6 °C 1019.7 hPa SE 5.0 km/h 11.1 km/h 42% 0.0 mm CLR
09:20 11.9 °C -0.6 °C 1019.8 hPa SSW 6.4 km/h 11.1 km/h 42% 0.0 mm CLR
09:25 12.1 °C -0.4 °C 1019.8 hPa SSW 6.4 km/h 13.0 km/h 42% 0.0 mm CLR
09:30 12.1 °C -0.4 °C 1019.8 hPa SW 8.4 km/h 11.1 km/h 42% 0.0 mm CLR
09:35 12.2 °C -0.3 °C 1019.9 hPa SSW 8.4 km/h 16.7 km/h 42% 0.0 mm CLR
09:40 12.3 °C -0.3 °C 1019.9 hPa South 9.5 km/h 13.0 km/h 42% 0.0 mm CLR
09:45 12.6 °C 0.0 °C 1019.9 hPa South 9.5 km/h 11.1 km/h 42% 0.0 mm CLR
09:50 12.8 °C 0.2 °C 1020.1 hPa SW 6.9 km/h 11.1 km/h 42% 0.0 mm CLR
09:55 12.9 °C 0.3 °C 1020.1 hPa SSW 6.9 km/h 13.0 km/h 42% 0.0 mm CLR
10:00 13.1 °C 0.4 °C 1020.1 hPa SSW 8.0 km/h 14.5 km/h 42% 0.0 mm CLR
10:05 13.3 °C 0.9 °C 1020.2 hPa West 7.6 km/h 14.8 km/h 43% 0.0 mm CLR
10:10 13.3 °C 0.9 °C 1020.2 hPa WSW 7.6 km/h 14.8 km/h 43% 0.0 mm CLR
10:15 13.3 °C 1.3 °C 1020.2 hPa SSW 7.6 km/h 13.0 km/h 44% 0.0 mm CLR
10:20 13.4 °C 1.1 °C 1020.3 hPa West 8.7 km/h 13.0 km/h 43% 0.0 mm CLR
10:25 13.7 °C 1.3 °C 1020.3 hPa WSW 8.7 km/h 11.1 km/h 43% 0.0 mm CLR
10:30 13.9 °C 1.8 °C 1020.3 hPa South 6.9 km/h 9.5 km/h 44% 0.0 mm CLR
10:35 14.3 °C 2.2 °C 1020.4 hPa West 6.9 km/h 13.0 km/h 44% 0.0 mm CLR
10:40 14.5 °C 2.4 °C 1020.4 hPa West 8.7 km/h 15.6 km/h 44% 0.0 mm CLR
10:45 14.6 °C 2.4 °C 1020.4 hPa SW 8.7 km/h 13.0 km/h 44% 0.0 mm CLR
10:50 14.8 °C 2.7 °C 1020.5 hPa West 10.3 km/h 7.4 km/h 44% 0.0 mm CLR
10:55 15.2 °C 3.0 °C 1020.5 hPa West 10.3 km/h 18.5 km/h 44% 0.0 mm CLR
11:00 15.4 °C 3.2 °C 1020.5 hPa West 9.7 km/h 20.9 km/h 44% 0.0 mm CLR
11:05 15.6 °C 3.4 °C 1020.5 hPa West 8.7 km/h 27.8 km/h 44% 0.0 mm CLR
11:10 15.7 °C 3.4 °C 1020.5 hPa SW 13.7 km/h 20.4 km/h 44% 0.0 mm CLR
11:15 15.8 °C 3.6 °C 1020.5 hPa WNW 13.7 km/h 24.1 km/h 44% 0.0 mm CLR
11:20 16.1 °C 3.8 °C 1020.6 hPa WNW 12.2 km/h 18.5 km/h 44% 0.0 mm CLR
11:25 16.3 °C 4.0 °C 1020.6 hPa SW 12.2 km/h 14.8 km/h 44% 0.0 mm CLR
11:30 16.4 °C 3.8 °C 1020.6 hPa SW 11.9 km/h 22.2 km/h 43% 0.0 mm CLR
11:35 16.6 °C 3.9 °C 1020.4 hPa West 11.9 km/h 14.8 km/h 43% 0.0 mm CLR
11:40 16.8 °C 4.2 °C 1020.4 hPa WSW 11.1 km/h 13.0 km/h 43% 0.0 mm CLR
11:45 17.0 °C 4.3 °C 1020.4 hPa NW 11.1 km/h 11.1 km/h 43% 0.0 mm CLR
11:50 17.1 °C 4.4 °C 1020.4 hPa WSW 8.7 km/h 20.4 km/h 43% 0.0 mm CLR
11:55 17.2 °C 4.5 °C 1020.4 hPa SW 8.7 km/h 18.5 km/h 43% 0.0 mm CLR
12:00 17.2 °C 4.6 °C 1020.4 hPa WSW 9.7 km/h 16.1 km/h 43% 0.0 mm CLR
12:05 17.3 °C 4.6 °C 1020.3 hPa West 9.5 km/h 11.1 km/h 43% 0.0 mm CLR
12:10 17.4 °C 4.3 °C 1020.3 hPa WSW 8.7 km/h 14.8 km/h 42% 0.0 mm CLR
12:15 17.5 °C 4.4 °C 1020.3 hPa NW 8.7 km/h 9.3 km/h 42% 0.0 mm CLR
12:20 17.8 °C 4.3 °C 1020.2 hPa WNW 7.6 km/h 18.5 km/h 41% 0.0 mm CLR
12:25 17.9 °C 4.8 °C 1020.2 hPa West 7.6 km/h 18.0 km/h 42% 0.0 mm CLR
12:30 17.8 °C 4.7 °C 1020.2 hPa WNW 11.1 km/h 25.9 km/h 42% 0.0 mm CLR
12:35 18.0 °C 4.9 °C 1020.1 hPa NW 11.1 km/h 22.2 km/h 42% 0.0 mm CLR
12:40 18.1 °C 4.6 °C 1020.1 hPa West 11.1 km/h 20.4 km/h 41% 0.0 mm CLR
12:45 17.9 °C 4.8 °C 1020.1 hPa West 11.1 km/h 8.4 km/h 42% 0.0 mm CLR
12:50 18.2 °C 4.7 °C 1020.2 hPa West 10.0 km/h 16.7 km/h 41% 0.0 mm CLR
12:55 18.3 °C 4.8 °C 1020.2 hPa NW 10.0 km/h 13.0 km/h 41% 0.0 mm CLR
13:00 18.4 °C 4.9 °C 1020.2 hPa West 8.0 km/h 20.9 km/h 41% 0.0 mm CLR
13:05 18.7 °C 4.8 °C 1020.0 hPa West 7.6 km/h 24.1 km/h 40% 0.0 mm CLR
13:10 18.7 °C 4.8 °C 1020.0 hPa West 11.1 km/h 16.7 km/h 40% 0.0 mm CLR
13:15 18.6 °C 4.7 °C 1020.0 hPa NW 11.1 km/h 16.7 km/h 40% 0.0 mm CLR
13:20 18.5 °C 4.6 °C 1019.9 hPa West 11.9 km/h 13.0 km/h 40% 0.0 mm CLR
13:25 18.7 °C 4.8 °C 1019.9 hPa NW 11.9 km/h 18.5 km/h 40% 0.0 mm CLR
13:30 18.8 °C 4.9 °C 1019.9 hPa NE 9.5 km/h 6.9 km/h 40% 0.0 mm CLR
13:35 19.0 °C 4.7 °C 1019.7 hPa SW 9.5 km/h 10.3 km/h 39% 0.0 mm CLR
13:40 19.1 °C 4.8 °C 1019.7 hPa ESE 6.4 km/h 9.3 km/h 39% 0.0 mm CLR
13:45 19.4 °C 5.1 °C 1019.7 hPa WSW 6.4 km/h 18.0 km/h 39% 0.0 mm CLR
13:50 19.3 °C 4.6 °C 1019.6 hPa WNW 8.7 km/h 14.8 km/h 38% 0.0 mm CLR
13:55 19.1 °C 4.8 °C 1019.6 hPa SW 8.7 km/h 16.7 km/h 39% 0.0 mm CLR
14:00 19.0 °C 4.7 °C 1019.6 hPa WSW 11.3 km/h 17.7 km/h 39% 0.0 mm CLR
14:05 19.1 °C 4.8 °C 1019.6 hPa SW 11.9 km/h 8.7 km/h 39% 0.0 mm CLR
14:10 19.5 °C 5.2 °C 1019.6 hPa SW 6.4 km/h 7.6 km/h 39% 0.0 mm CLR
14:15 19.6 °C 4.9 °C 1019.6 hPa WNW 6.4 km/h 13.0 km/h 38% 0.0 mm CLR
14:20 19.6 °C 4.9 °C 1019.5 hPa WSW 7.6 km/h 11.1 km/h 38% 0.0 mm CLR
14:25 19.7 °C 5.0 °C 1019.5 hPa WSW 7.6 km/h 16.7 km/h 38% 0.0 mm CLR
14:30 19.8 °C 4.7 °C 1019.5 hPa West 9.5 km/h 3.7 km/h 37% 0.0 mm CLR
14:35 19.9 °C 4.8 °C 1019.4 hPa WNW 9.5 km/h 7.6 km/h 37% 0.0 mm CLR
14:40 19.9 °C 4.4 °C 1019.4 hPa WSW 3.2 km/h 16.7 km/h 36% 0.0 mm CLR
14:45 19.9 °C 4.4 °C 1019.4 hPa NNW 3.2 km/h 11.1 km/h 36% 0.0 mm CLR
14:50 19.8 °C 4.7 °C 1019.4 hPa North 8.4 km/h 13.0 km/h 37% 0.0 mm CLR
14:55 19.7 °C 4.2 °C 1019.4 hPa NNE 8.4 km/h 13.0 km/h 36% 0.0 mm CLR
15:00 19.7 °C 4.2 °C 1019.4 hPa North 8.0 km/h 14.5 km/h 36% 0.0 mm CLR
15:05 19.7 °C 4.2 °C 1019.2 hPa North 8.4 km/h 9.3 km/h 36% 0.0 mm CLR
15:10 19.7 °C 4.2 °C 1019.2 hPa NNW 5.8 km/h 10.3 km/h 36% 0.0 mm CLR
15:15 19.7 °C 4.2 °C 1019.2 hPa NW 5.8 km/h 5.6 km/h 36% 0.0 mm CLR
15:20 19.7 °C 4.2 °C 1019.3 hPa NW 4.7 km/h 5.6 km/h 36% 0.0 mm CLR
15:25 19.7 °C 4.2 °C 1019.3 hPa West 4.7 km/h 5.6 km/h 36% 0.0 mm CLR
15:30 19.7 °C 3.8 °C 1019.3 hPa ENE 3.9 km/h 6.4 km/h 35% 0.0 mm CLR
15:33 19.7 °C 4.2 °C 1019.3 hPa East 3.9 km/h 7.4 km/h 36% 0.0 mm CLR
16:15 19.8 °C 4.3 °C 1019.2 hPa East 8.4 km/h 9.3 km/h 36% 0.0 mm CLR
16:20 19.9 °C 4.0 °C 1019.2 hPa ENE 7.6 km/h 11.1 km/h 35% 0.0 mm CLR
16:25 20.0 °C 4.4 °C 1019.2 hPa North 7.6 km/h 9.3 km/h 36% 0.0 mm CLR
16:30 20.1 °C 4.6 °C 1019.2 hPa ENE 7.6 km/h 9.3 km/h 36% 0.0 mm CLR
16:35 20.2 °C 4.2 °C 1019.2 hPa NE 7.6 km/h 9.3 km/h 35% 0.0 mm CLR
16:40 20.2 °C 4.2 °C 1019.2 hPa NE 5.8 km/h 11.9 km/h 35% 0.0 mm CLR
16:45 20.1 °C 4.2 °C 1019.2 hPa NNE 5.8 km/h 10.0 km/h 35% 0.0 mm CLR
16:50 19.9 °C 4.0 °C 1019.3 hPa ENE 7.6 km/h 13.0 km/h 35% 0.0 mm CLR
16:55 19.8 °C 3.9 °C 1019.3 hPa ENE 7.6 km/h 9.3 km/h 35% 0.0 mm CLR
17:00 19.8 °C 4.3 °C 1019.3 hPa NE 8.0 km/h 9.7 km/h 36% 0.0 mm CLR
17:05 19.8 °C 4.3 °C 1019.4 hPa East 6.9 km/h 9.3 km/h 36% 0.0 mm CLR
17:10 19.8 °C 4.3 °C 1019.4 hPa East 5.8 km/h 9.3 km/h 36% 0.0 mm CLR
17:15 19.8 °C 4.3 °C 1019.4 hPa ESE 5.8 km/h 11.1 km/h 36% 0.0 mm CLR
17:20 19.8 °C 3.9 °C 1019.3 hPa SE 8.4 km/h 11.1 km/h 35% 0.0 mm CLR
17:25 19.8 °C 4.3 °C 1019.3 hPa East 8.4 km/h 9.3 km/h 36% 0.0 mm CLR
17:30 19.8 °C 4.3 °C 1019.3 hPa NNE 6.9 km/h 9.3 km/h 36% 0.0 mm CLR
17:35 19.5 °C 4.8 °C 1019.5 hPa NE 6.9 km/h 31.5 km/h 38% 0.0 mm CLR
17:40 19.2 °C 4.9 °C 1019.5 hPa ESE 11.9 km/h 24.1 km/h 39% 0.0 mm CLR
17:45 18.8 °C 4.9 °C 1019.5 hPa ESE 11.9 km/h 20.4 km/h 40% 0.0 mm CLR
17:50 18.6 °C 5.1 °C 1020.0 hPa East 13.7 km/h 13.0 km/h 41% 0.0 mm CLR
17:55 18.5 °C 5.0 °C 1020.0 hPa ENE 13.7 km/h 13.0 km/h 41% 0.0 mm CLR
18:00 18.4 °C 5.2 °C 1020.0 hPa ENE 8.0 km/h 19.3 km/h 42% 0.0 mm CLR
18:05 18.3 °C 5.2 °C 1020.4 hPa NE 8.4 km/h 9.3 km/h 42% 0.0 mm CLR
18:10 18.2 °C 5.4 °C 1020.4 hPa NNE 7.6 km/h 9.3 km/h 43% 0.0 mm CLR
18:15 18.1 °C 5.7 °C 1020.4 hPa NE 7.6 km/h 13.0 km/h 44% 0.0 mm CLR
18:20 18.0 °C 5.6 °C 1020.8 hPa NE 7.6 km/h 11.1 km/h 44% 0.0 mm CLR
18:25 17.8 °C 5.7 °C 1020.8 hPa ENE 7.6 km/h 13.0 km/h 45% 0.0 mm CLR
18:30 17.7 °C 5.6 °C 1020.8 hPa NE 6.9 km/h 13.0 km/h 45% 0.0 mm CLR
18:35 17.6 °C 5.5 °C 1021.1 hPa NE 6.9 km/h 13.0 km/h 45% 0.0 mm CLR
18:40 17.4 °C 5.3 °C 1021.1 hPa NNE 8.7 km/h 13.0 km/h 45% 0.0 mm CLR
18:45 17.3 °C 5.2 °C 1021.1 hPa East 8.7 km/h 18.5 km/h 45% 0.0 mm CLR
18:50 17.1 °C 5.1 °C 1021.5 hPa NE 11.1 km/h 16.7 km/h 45% 0.0 mm CLR
18:55 16.9 °C 4.9 °C 1021.5 hPa NE 11.1 km/h 14.8 km/h 45% 0.0 mm CLR
19:00 16.8 °C 4.4 °C 1021.5 hPa NE 11.3 km/h 14.5 km/h 44% 0.0 mm CLR
19:05 16.6 °C 4.3 °C 1021.9 hPa NNE 11.9 km/h 16.7 km/h 44% 0.0 mm CLR
19:10 16.4 °C 4.1 °C 1021.9 hPa East 10.0 km/h 11.1 km/h 44% 0.0 mm CLR
19:15 16.2 °C 4.2 °C 1021.9 hPa NE 10.0 km/h 11.1 km/h 45% 0.0 mm CLR
19:20 16.0 °C 4.1 °C 1022.2 hPa ENE 8.4 km/h 13.0 km/h 45% 0.0 mm CLR
19:25 15.7 °C 4.1 °C 1022.2 hPa North 8.4 km/h 13.0 km/h 46% 0.0 mm CLR
19:30 15.5 °C 3.9 °C 1022.2 hPa NNE 10.3 km/h 14.8 km/h 46% 0.0 mm CLR
19:35 15.3 °C 3.7 °C 1022.5 hPa NE 10.3 km/h 16.7 km/h 46% 0.0 mm CLR
19:40 15.1 °C 3.8 °C 1022.5 hPa NNE 10.3 km/h 14.8 km/h 47% 0.0 mm CLR
19:45 15.0 °C 3.8 °C 1022.5 hPa NNE 10.3 km/h 13.0 km/h 47% 0.0 mm CLR
19:50 14.8 °C 3.9 °C 1022.9 hPa NE 10.0 km/h 14.8 km/h 48% 0.0 mm CLR
19:55 14.6 °C 4.0 °C 1022.9 hPa NNE 10.0 km/h 14.8 km/h 49% 0.0 mm CLR
20:00 14.4 °C 3.8 °C 1022.9 hPa NNE 12.9 km/h 22.5 km/h 49% 0.0 mm CLR
20:05 14.3 °C 4.0 °C 1023.1 hPa North 12.2 km/h 14.8 km/h 50% 0.0 mm CLR
20:10 14.3 °C 4.3 °C 1023.1 hPa NNE 13.0 km/h 14.8 km/h 51% 0.0 mm CLR
20:15 14.2 °C 4.5 °C 1023.1 hPa NE 13.0 km/h 18.5 km/h 52% 0.0 mm CLR
20:20 14.2 °C 4.7 °C 1023.5 hPa NNE 11.9 km/h 14.8 km/h 53% 0.0 mm CLR
20:25 14.1 °C 4.9 °C 1023.5 hPa NE 11.9 km/h 13.0 km/h 54% 0.0 mm CLR
20:30 14.1 °C 5.2 °C 1023.5 hPa NE 8.4 km/h 13.0 km/h 55% 0.0 mm CLR
20:35 13.9 °C 5.3 °C 1024.0 hPa ENE 8.4 km/h 13.0 km/h 56% 0.0 mm CLR
20:40 13.8 °C 5.4 °C 1024.0 hPa NE 8.7 km/h 11.1 km/h 57% 0.0 mm CLR
20:45 13.8 °C 5.4 °C 1024.0 hPa NE 8.7 km/h 13.0 km/h 57% 0.0 mm CLR
20:50 13.7 °C 5.6 °C 1024.1 hPa NNE 7.6 km/h 9.3 km/h 58% 0.0 mm CLR
20:55 13.6 °C 5.7 °C 1024.1 hPa North 7.6 km/h 11.1 km/h 59% 0.0 mm CLR
21:00 13.6 °C 5.7 °C 1024.1 hPa NNE 8.0 km/h 11.3 km/h 59% 0.0 mm CLR
21:05 13.4 °C 5.6 °C 1024.4 hPa North 7.6 km/h 7.4 km/h 59% 0.0 mm CLR
21:10 13.4 °C 5.6 °C 1024.4 hPa NE 4.7 km/h 9.3 km/h 59% 0.0 mm CLR
21:15 13.3 °C 5.4 °C 1024.4 hPa NNE 4.7 km/h 9.3 km/h 59% 0.0 mm CLR
21:20 13.3 °C 5.7 °C 1024.6 hPa NE 6.4 km/h 11.1 km/h 60% 0.0 mm CLR
21:25 13.2 °C 5.6 °C 1024.6 hPa ENE 6.4 km/h 7.4 km/h 60% 0.0 mm CLR
21:30 13.2 °C 5.6 °C 1024.6 hPa NE 5.8 km/h 5.6 km/h 60% 0.0 mm CLR
21:35 13.2 °C 5.8 °C 1024.6 hPa NE 5.8 km/h 7.4 km/h 61% 0.0 mm CLR
21:40 13.2 °C 5.8 °C 1024.6 hPa NE 4.7 km/h 8.4 km/h 61% 0.0 mm CLR
21:45 13.1 °C 5.7 °C 1024.6 hPa NE 4.7 km/h 9.3 km/h 61% 0.0 mm CLR
21:50 13.1 °C 6.0 °C 1024.9 hPa NE 6.4 km/h 7.4 km/h 62% 0.0 mm CLR
21:55 13.1 °C 5.7 °C 1024.9 hPa NE 6.4 km/h 3.7 km/h 61% 0.0 mm CLR
22:00 13.1 °C 6.0 °C 1024.9 hPa NE 3.2 km/h 8.0 km/h 62% 0.0 mm CLR
22:05 13.0 °C 5.9 °C 1025.2 hPa NNE 3.9 km/h 7.4 km/h 62% 0.0 mm CLR
22:10 12.9 °C 5.8 °C 1025.2 hPa NE 5.0 km/h 7.4 km/h 62% 0.0 mm CLR
22:15 12.9 °C 6.0 °C 1025.2 hPa NNE 5.0 km/h 7.4 km/h 63% 0.0 mm CLR
22:20 12.8 °C 5.9 °C 1025.2 hPa NE 5.8 km/h 7.4 km/h 63% 0.0 mm CLR
22:25 12.8 °C 6.2 °C 1025.2 hPa NE 5.8 km/h 9.3 km/h 64% 0.0 mm CLR
22:30 12.7 °C 6.1 °C 1025.2 hPa NE 5.8 km/h 7.4 km/h 64% 0.0 mm CLR
22:35 12.6 °C 5.9 °C 1025.3 hPa NE 5.8 km/h 7.4 km/h 64% 0.0 mm CLR
22:40 12.6 °C 5.9 °C 1025.3 hPa NE 6.4 km/h 3.7 km/h 64% 0.0 mm CLR
22:45 12.5 °C 5.9 °C 1025.3 hPa NE 6.4 km/h 4.7 km/h 64% 0.0 mm CLR
22:50 12.4 °C 5.8 °C 1025.5 hPa NE 2.9 km/h 3.7 km/h 64% 0.0 mm CLR
22:55 12.3 °C 5.7 °C 1025.5 hPa NE 2.9 km/h 7.6 km/h 64% 0.0 mm CLR
23:00 12.3 °C 5.9 °C 1025.5 hPa NE 3.2 km/h 9.7 km/h 65% 0.0 mm CLR
23:05 12.3 °C 5.9 °C 1025.6 hPa NE 3.2 km/h 5.6 km/h 65% 0.0 mm CLR
23:10 12.3 °C 5.9 °C 1025.6 hPa NE 3.9 km/h 3.9 km/h 65% 0.0 mm CLR
23:15 12.3 °C 5.9 °C 1025.6 hPa NE 3.9 km/h 3.7 km/h 65% 0.0 mm CLR
23:20 12.3 °C 5.9 °C 1025.9 hPa NE 2.3 km/h 3.7 km/h 65% 0.0 mm CLR
23:25 12.3 °C 5.9 °C 1025.9 hPa NE 2.3 km/h   65% 0.0 mm CLR
23:30 12.3 °C 5.9 °C 1025.9 hPa NE 2.3 km/h   65% 0.0 mm CLR
23:35 12.2 °C 5.8 °C 1026.0 hPa NE 2.3 km/h   65% 0.0 mm CLR
23:40 12.1 °C 5.7 °C 1026.0 hPa Calm   3.7 km/h 65% 0.0 mm CLR
23:45 11.9 °C 5.7 °C 1026.0 hPa Calm     66% 0.0 mm CLR
23:50 11.8 °C 5.7 °C 1026.1 hPa Calm     66% 0.0 mm CLR
23:55 11.8 °C 5.9 °C 1026.1 hPa Calm   3.7 km/h 67% 0.0 mm CLR
Murcia-Puente Tocinos, España
Compliments of Weather Underground - 2.75 mb

La estación de MeteoMurcia.com, publica sus datos en los siguientes proyectos:

Weather Underground PWS IMURCIAP2 Meteoclimatic www.awekas.at

W3Counter
Web Analytics